| time (UTC) | temp F | wind direction | speed knots | gust knots | rain 1hr in | rain 24hr in | rain mn in | humidity % | barometer mb |
| 20260508064848 | 54 | 160 | 11.3 | 0.0 | 0.00 | 0.00 | 0.00 | 94 | 1015.0 |
| 20260508063348 | 54 | 160 | 11.3 | 0.0 | 0.00 | 0.00 | 0.00 | 94 | 1015.0 |
| 20260508061844 | 54 | 160 | 11.3 | 0.0 | 0.00 | 0.00 | 0.00 | 94 | 1015.0 |
| 20260508060348 | 54 | 160 | 11.3 | 0.0 | 0.00 | 0.00 | 0.00 | 94 | 1015.0 |
| 20260508054845 | 52 | 160 | 9.6 | 0.0 | 0.00 | 0.00 | 0.00 | 100 | 1016.0 |
| 20260508053347 | 52 | 160 | 9.6 | 0.0 | 0.00 | 0.00 | 0.00 | 100 | 1016.0 |
| 20260508051848 | 52 | 160 | 7.8 | 0.0 | 0.00 | 0.00 | 0.00 | 94 | 1015.0 |
| 20260508050348 | 52 | 160 | 7.8 | 0.0 | 0.00 | 0.00 | 0.00 | 94 | 1015.0 |
| 20260508044848 | 52 | 170 | 8.7 | 0.0 | 0.00 | 0.00 | 0.00 | 94 | 1015.0 |
| 20260508043348 | 52 | 170 | 9.6 | 0.0 | 0.00 | 0.00 | 0.00 | 94 | 1015.0 |
| 20260508041843 | 52 | 170 | 9.6 | 0.0 | 0.00 | 0.00 | 0.00 | 94 | 1015.0 |
| 20260508040349 | 52 | 170 | 9.6 | 0.0 | 0.00 | 0.00 | 0.00 | 94 | 1015.0 |
| 20260508034842 | 50 | 170 | 11.3 | 0.0 | 0.00 | 0.00 | 0.00 | 100 | 1015.0 |
| 20260508033348 | 50 | 170 | 11.3 | 0.0 | 0.00 | 0.00 | 0.00 | 100 | 1015.0 |
| 20260508031845 | 50 | 160 | 9.6 | 0.0 | 0.00 | 0.00 | 0.00 | 100 | 1015.0 |
| 20260508030348 | 0 | 170 | 13.0 | 0.0 | 0.00 | 0.00 | 0.00 | ||
| 20260508024848 | 52 | 170 | 13.0 | 0.0 | 0.00 | 0.00 | 0.00 | 88 | 1014.0 |
| 20260508023348 | 52 | 170 | 13.0 | 0.0 | 0.00 | 0.00 | 0.00 | 88 | 1014.0 |
| 20260508021849 | 52 | 170 | 13.0 | 0.0 | 0.00 | 0.00 | 0.00 | 88 | 1014.0 |
| 20260508020348 | 52 | 170 | 13.0 | 0.0 | 0.00 | 0.00 | 0.00 | 88 | 1014.0 |
| 20260508014845 | 52 | 170 | 13.0 | 0.0 | 0.00 | 0.00 | 0.00 | 88 | 1014.0 |
| 20260508013348 | 52 | 170 | 13.0 | 0.0 | 0.00 | 0.00 | 0.00 | 88 | 1014.0 |
| 20260508011848 | 52 | 170 | 13.0 | 0.0 | 0.00 | 0.00 | 0.00 | 88 | 1014.0 |
| 20260508010347 | 0 | 0.0 | 0.0 | 0.00 | 0.00 | 0.00 | |||
| 20260508004848 | 52 | 160 | 13.9 | 0.0 | 0.00 | 0.00 | 0.00 | 88 | 1014.0 |
| 20260508003347 | 52 | 160 | 12.2 | 0.0 | 0.00 | 0.00 | 0.00 | 94 | 1014.0 |
| 20260508001844 | 52 | 160 | 12.2 | 0.0 | 0.00 | 0.00 | 0.00 | 94 | 1014.0 |
| 20260508000349 | 52 | 160 | 12.2 | 0.0 | 0.00 | 0.00 | 0.00 | 94 | 1014.0 |
| 20260507234845 | 52 | 170 | 13.0 | 0.0 | 0.00 | 0.00 | 0.00 | 94 | 1014.0 |
| 20260507233347 | 52 | 170 | 13.0 | 0.0 | 0.00 | 0.00 | 0.00 | 94 | 1014.0 |
| 20260507231844 | 54 | 170 | 13.9 | 0.0 | 0.00 | 0.00 | 0.00 | 88 | 1014.0 |
| 20260507230347 | 54 | 170 | 13.9 | 0.0 | 0.00 | 0.00 | 0.00 | 88 | 1014.0 |
| 20260507224847 | 54 | 170 | 13.0 | 0.0 | 0.00 | 0.00 | 0.00 | 88 | 1015.0 |
| 20260507223509 | 54 | 170 | 13.0 | 0.0 | 0.00 | 0.00 | 0.00 | 88 | 1015.0 |
| 20260507221845 | 54 | 170 | 13.0 | 0.0 | 0.00 | 0.00 | 0.00 | 88 | 1014.0 |
| 20260507220347 | 54 | 170 | 13.0 | 0.0 | 0.00 | 0.00 | 0.00 | 88 | 1014.0 |
| 20260507214847 | 55 | 160 | 12.2 | 0.0 | 0.00 | 0.00 | 0.00 | 82 | 1014.0 |
| 20260507213349 | 57 | 160 | 15.6 | 0.0 | 0.00 | 0.00 | 0.00 | 82 | 1014.0 |
| 20260507211848 | 57 | 160 | 15.6 | 0.0 | 0.00 | 0.00 | 0.00 | 82 | 1014.0 |
| 20260507210348 | 57 | 160 | 15.6 | 0.0 | 0.00 | 0.00 | 0.00 | 82 | 1014.0 |
| 20260507204848 | 57 | 160 | 14.8 | 0.0 | 0.00 | 0.00 | 0.00 | 82 | 1014.0 |
| 20260507203348 | 57 | 160 | 14.8 | 0.0 | 0.00 | 0.00 | 0.00 | 82 | 1014.0 |
| 20260507201845 | 59 | 160 | 13.9 | 0.0 | 0.00 | 0.00 | 0.00 | 77 | 1014.0 |
| 20260507200348 | 59 | 160 | 13.9 | 0.0 | 0.00 | 0.00 | 0.00 | 77 | 1014.0 |
| 20260507194853 | 61 | 160 | 17.4 | 0.0 | 0.00 | 0.00 | 0.00 | 72 | 1014.0 |
| 20260507193347 | 61 | 160 | 17.4 | 0.0 | 0.00 | 0.00 | 0.00 | 72 | 1014.0 |
| 20260507191844 | 63 | 160 | 17.4 | 0.0 | 0.00 | 0.00 | 0.00 | 68 | 1014.0 |
| 20260507190348 | 63 | 160 | 17.4 | 0.0 | 0.00 | 0.00 | 0.00 | 68 | 1014.0 |
| 20260507184849 | 64 | 150 | 15.6 | 0.0 | 0.00 | 0.00 | 0.00 | 64 | 1014.0 |
| 20260507183347 | 64 | 150 | 15.6 | 0.0 | 0.00 | 0.00 | 0.00 | 64 | 1014.0 |
| 20260507181847 | 66 | 150 | 15.6 | 0.0 | 0.00 | 0.00 | 0.00 | 60 | 1013.0 |
| 20260507180347 | 66 | 150 | 15.6 | 0.0 | 0.00 | 0.00 | 0.00 | 60 | 1013.0 |
| 20260507174847 | 68 | 150 | 17.4 | 0.0 | 0.00 | 0.00 | 0.00 | 53 | 1013.0 |
| 20260507173348 | 68 | 150 | 17.4 | 0.0 | 0.00 | 0.00 | 0.00 | 53 | 1013.0 |
| 20260507171848 | 68 | 150 | 15.6 | 0.0 | 0.00 | 0.00 | 0.00 | 53 | 1013.0 |
| 20260507170347 | 68 | 150 | 15.6 | 0.0 | 0.00 | 0.00 | 0.00 | 53 | 1013.0 |
| 20260507164848 | 70 | 150 | 19.1 | 0.0 | 0.00 | 0.00 | 0.00 | 50 | 1013.0 |
| 20260507163348 | 70 | 150 | 19.1 | 0.0 | 0.00 | 0.00 | 0.00 | 50 | 1013.0 |
| 20260507161847 | 72 | 150 | 14.8 | 0.0 | 0.00 | 0.00 | 0.00 | 47 | 1013.0 |
| 20260507160347 | 72 | 150 | 14.8 | 0.0 | 0.00 | 0.00 | 0.00 | 47 | 1013.0 |
| 20260507154848 | 70 | 150 | 13.0 | 0.0 | 0.00 | 0.00 | 0.00 | 50 | 1013.0 |
| 20260507153348 | 70 | 150 | 13.0 | 0.0 | 0.00 | 0.00 | 0.00 | 50 | 1013.0 |
| 20260507151847 | 72 | 150 | 15.6 | 0.0 | 0.00 | 0.00 | 0.00 | 44 | 1013.0 |
| 20260507150347 | 72 | 150 | 15.6 | 0.0 | 0.00 | 0.00 | 0.00 | 44 | 1013.0 |
| 20260507144847 | 72 | 150 | 15.6 | 0.0 | 0.00 | 0.00 | 0.00 | 44 | 1013.0 |
| 20260507143349 | 72 | 150 | 15.6 | 0.0 | 0.00 | 0.00 | 0.00 | 44 | 1013.0 |
| 20260507141848 | 72 | 150 | 15.6 | 0.0 | 0.00 | 0.00 | 0.00 | 44 | 1014.0 |
| 20260507140347 | 72 | 150 | 15.6 | 0.0 | 0.00 | 0.00 | 0.00 | 44 | 1014.0 |
| 20260507134848 | 73 | 150 | 15.6 | 0.0 | 0.00 | 0.00 | 0.00 | 41 | 1014.0 |
| 20260507133347 | 73 | 150 | 15.6 | 0.0 | 0.00 | 0.00 | 0.00 | 41 | 1014.0 |
| 20260507131844 | 73 | 150 | 19.1 | 0.0 | 0.00 | 0.00 | 0.00 | 38 | 1014.0 |
| 20260507130347 | 73 | 150 | 19.1 | 0.0 | 0.00 | 0.00 | 0.00 | 38 | 1014.0 |
| 20260507124844 | 73 | 150 | 18.2 | 0.0 | 0.00 | 0.00 | 0.00 | 41 | 1014.0 |
| 20260507123425 | 73 | 150 | 18.2 | 0.0 | 0.00 | 0.00 | 0.00 | 41 | 1014.0 |
| 20260507121847 | 73 | 160 | 19.1 | 0.0 | 0.00 | 0.00 | 0.00 | 38 | 1014.0 |
| 20260507120347 | 73 | 160 | 19.1 | 0.0 | 0.00 | 0.00 | 0.00 | 38 | 1014.0 |
| 20260507114847 | 73 | 160 | 18.2 | 0.0 | 0.00 | 0.00 | 0.00 | 38 | 1015.0 |
| 20260507113409 | 72 | 150 | 17.4 | 0.0 | 0.00 | 0.00 | 0.00 | 38 | 1015.0 |
| 20260507111847 | 72 | 150 | 17.4 | 0.0 | 0.00 | 0.00 | 0.00 | 38 | 1015.0 |
| 20260507110347 | 72 | 150 | 17.4 | 0.0 | 0.00 | 0.00 | 0.00 | 38 | 1015.0 |
| 20260507104847 | 72 | 160 | 18.2 | 0.0 | 0.00 | 0.00 | 0.00 | 38 | 1015.0 |
| 20260507103347 | 72 | 160 | 18.2 | 0.0 | 0.00 | 0.00 | 0.00 | 38 | 1015.0 |
| 20260507101847 | 70 | 160 | 17.4 | 0.0 | 0.00 | 0.00 | 0.00 | 43 | 1015.0 |
| 20260507100348 | 70 | 160 | 17.4 | 0.0 | 0.00 | 0.00 | 0.00 | 43 | 1015.0 |
| 20260507094848 | 68 | 160 | 14.8 | 0.0 | 0.00 | 0.00 | 0.00 | 46 | 1015.0 |
| 20260507093348 | 68 | 160 | 14.8 | 0.0 | 0.00 | 0.00 | 0.00 | 46 | 1015.0 |
| 20260507091849 | 68 | 160 | 15.6 | 0.0 | 0.00 | 0.00 | 0.00 | 46 | 1015.0 |
| 20260507090348 | 68 | 160 | 15.6 | 0.0 | 0.00 | 0.00 | 0.00 | 46 | 1015.0 |
| 20260507084847 | 66 | 160 | 15.6 | 0.0 | 0.00 | 0.00 | 0.00 | 49 | 1015.0 |
| 20260507083348 | 66 | 160 | 15.6 | 0.0 | 0.00 | 0.00 | 0.00 | 49 | 1015.0 |
| 20260507081847 | 63 | 160 | 14.8 | 0.0 | 0.00 | 0.00 | 0.00 | 59 | 1015.0 |
| 20260507080348 | 63 | 160 | 14.8 | 0.0 | 0.00 | 0.00 | 0.00 | 59 | 1015.0 |
| 20260507074848 | 63 | 160 | 14.8 | 0.0 | 0.00 | 0.00 | 0.00 | 56 | 1015.0 |
| 20260507073347 | 63 | 160 | 14.8 | 0.0 | 0.00 | 0.00 | 0.00 | 56 | 1015.0 |
| 20260507071848 | 63 | 160 | 13.0 | 0.0 | 0.00 | 0.00 | 0.00 | 59 | 1016.0 |
| 20260507070347 | 63 | 160 | 13.0 | 0.0 | 0.00 | 0.00 | 0.00 | 59 | 1016.0 |